TIME,DELAY(SENSOR),PRES,OXYGEN,RAWTEMP,T(OPTODE),TCPHASE,FLUOR,BETA(BETA700),BETA(BETA412),BETA(BETA440),CDOM,C(CSC),ED(ED412.40),ED(ED444.00),ED(ED489.70),ED(ED554.30),LU(LU411.80),LU(LU443.40),LU(LU489.60),LU(LU554.10),COMP,TILTX,TILTY,CHECK
1368158520,5805,810.4500122070312000,41.6983909606933600,653.8308105468750000,4.8308620452880860,54.6693611145019500,52,99,85,80,79,14696,2147754377,2147427456,2148010496,2147872521,2147636845,2147062262,2148256914,2147197476,1351,4,13,19949
1368162116,5808,847.2199707031250000,45.5629692077636700,660.6951904296875000,4.6050829887390140,54.1812705993652340,52,98,87,79,80,14694,2147757302,2147424265,2148008548,2147871341,2147636416,2147061074,2148259593,2147193280,2351,4,13,58185
1368165716,5810,868.2199707031250000,46.6929588317871100,662.5239868164062000,4.5448417663574220,54.0424308776855500,53,97,86,79,78,14700,2147756681,2147426185,2148008868,2147874550,2147639076,2147059273,2148256228,2147200466,736,4,13,36588
1368169316,5809,897.5100097656250000,46.5478401184082000,663.6248779296875000,4.5085601806640625,54.0763893127441400,52,102,88,79,79,14695,2147756315,2147425462,2148007744,2147877540,2147640886,2147062180,2148260726,2147197558,333,4,13,24429
1368172916,5806,902.3800048828125000,46.8523292541503900,663.8906860351562000,4.4998021125793460,54.0346183776855500,52,99,88,79,79,14695,2147753929,2147425965,2148010368,2147875017,2147642230,2147064155,2148259602,2147198372,3472,4,13,44266
1368176516,5809,908.7899780273438000,46.4815483093261700,663.4003906250000000,4.5159611701965330,54.0854187011718750,53,98,87,79,80,14698,2147756845,2147427593,2148009965,2147874614,2147639542,2147061778,2148260608,2147193682,3380,4,13,52919
1368180116,5809,936.4199829101562000,45.8699989318847660,665.9879150390625000,4.4306411743164060,54.2052307128906250,52,97,86,79,80,14696,2147755328,2147422893,2148010742,2147877284,2147638564,2147058121,2148259849,2147196214,387,4,13,62639
1368183716,5808,941.7299804687500000,45.5849990844726560,666.0321044921875000,4.4291839599609375,54.2433700561523440,53,99,85,82,80,14694,2147759990,2147426880,2148011748,2147876105,2147640704,2147060608,2148259739,2147194779,236,4,13,30015
1368187316,5810,938.8800048828125000,45.8534088134765600,666.8609008789062000,4.4018378257751465,54.2169303894043000,53,98,85,78,80,14693,2147758994,2147426706,2148007131,2147876032,2147642020,2147059355,2148260352,2147196891,100,4,13,16162
1368190916,5805,958.1799926757812000,46.7594299316406250,670.1679077148438000,4.2926502227783200,54.1292915344238300,53,103,86,77,79,14694,2147759104,2147425654,2148008758,2147876452,2147639890,2147057371,2148257024,2147195867,158,4,13,13136
1368194516,5809,963.6699829101562000,47.1049804687500000,670.3536987304688000,4.2865138053894040,54.0778884887695300,53,101,85,79,80,14690,2147758857,2147423798,2148011739,2147872484,2147640521,2147056594,2148261970,2147194989,106,4,13,15462
1368198116,5811,960.5599975585938000,46.6833381652832000,669.7932739257812000,4.3050231933593750,54.1353797912597660,53,97,85,78,78,14692,2147759104,2147424804,2148012818,2147876333,2147639634,2147057837,2148261449,2147197842,3544,4,13,57756
1368201716,5809,984.2800292968750000,47.9045104980468750,672.9257812500000000,4.2014999389648440,53.9978218078613300,52,98,88,79,79,14673,2147758134,2147424877,2148010633,2147875428,2147640612,2147058450,2148259785,2147196342,3579,4,13,28070
1368205316,5810,983.9899902343750000,49.1157913208007800,673.1394042968750000,4.1944351196289060,53.8358497619628900,52,100,85,80,80,14685,2147754962,2147426057,2148010861,2147875894,2147639305,2147059236,2148259337,2147197878,199,4,13,9270
1368208916,5812,987.0900268554688000,49.4316101074218750,673.2061767578125000,4.1922249794006350,53.7902107238769500,53,99,87,78,79,14690,2147756096,2147424393,2148010221,2147874660,2147636946,2147058313,2148262400,2147194560,281,4,13,20289
1368212516,5810,985.6699829101562000,49.2966194152832000,673.9528808593750000,4.1675281524658200,53.8173904418945300,53,96,88,79,80,14689,2147755492,2147422189,2148005659,2147876242,2147641170,2147061622,2148263149,2147194852,80,4,13,50905
1368216116,5807,992.7899780273438000,49.4766006469726560,673.1882934570312000,4.1928181648254395,53.7861785888671900,53,100,83,79,80,14689,2147756342,2147423926,2148010285,2147874834,2147641773,2147062363,2148261101,2147196187,185,4,13,8253
1368219716,5804,989.7800292968750000,49.0424194335937500,673.9017944335938000,4.1692199707031250,53.8495903015136700,53,100,84,78,79,14680,2147757522,2147423872,2148011346,2147874596,2147644013,2147056914,2148258468,2147197650,108,4,13,4303
1368223316,5807,989.4600219726562000,49.8182106018066400,673.8903198242188000,4.1696009635925290,53.7463493347168000,52,95,83,80,80,14684,2147759067,2147425106,2148011684,2147876352,2147642889,2147055296,2148266898,2147196909,86,4,13,31732
1368226916,5809,991.9199829101562000,48.9225807189941400,673.1505737304688000,4.1940670013427730,53.8574295043945300,51,99,86,79,80,14684,2147756269,2147424064,2148007954,2147871332,2147645696,2147055908,2148259520,2147193508,3563,4,13,30441
1368230516,5809,987.1900024414062000,49.0455894470214840,673.8339233398438000,4.1714649200439450,53.8487205505371100,53,97,89,79,79,14684,2147755757,2147426669,2148006006,2147875382,2147641764,2147056630,2148261979,2147194432,3414,4,13,39674
1368234116,5807,992.8499755859375000,48.9630813598632800,673.5291137695312000,4.1815471649169920,53.8553504943847660,52,98,87,80,80,14683,2147756132,2147426294,2148010907,2147874358,2147639478,2147053860,2148257545,2147195081,3227,4,13,62161
1368237716,5810,998.1799926757812000,49.2900810241699200,673.1785888671875000,4.1931381225585940,53.8048400878906250,53,98,88,78,80,14679,2147756288,2147424475,2148011721,2147873846,2147645238,2147055652,2148258962,2147198253,3124,4,13,22339
1368241316,5810,993.9000244140625000,49.1106414794921900,673.1115722656250000,4.1953530311584470,53.8322601318359400,53,98,89,78,81,14681,2147757796,2147426678,2148012580,2147876086,2147643318,2147058797,2148262491,2147194660,3381,4,13,21567
1368244916,5810,991.4600219726562000,48.9887619018554700,673.2089843750000000,4.1921329498291020,53.8507995605468750,53,99,87,78,80,14682,2147754221,2147422610,2148006848,2147872118,2147640832,2147055670,2148258340,2147197769,21,4,13,18185
1368248516,5808,986.8499755859375000,48.9647102355957000,673.5695800781250000,4.1802058219909670,53.8609695434570300,52,96,86,79,80,14681,2147757878,2147421668,2148007926,2147877238,2147644882,2147055853,2148259904,2147196955,821,4,13,1816
1368252116,5809,986.7299804687500000,49.1142311096191400,674.7432250976562000,4.1413841247558590,53.8517189025878900,51,98,86,79,80,14681,2147755885,2147425801,2148008384,2147876379,2147642496,2147056649,2148260315,2147198518,116,4,13,58
1368255716,5811,1003.4000244140625000,49.5693702697753900,673.5714111328125000,4.1801509857177730,53.7754402160644500,51,99,89,78,80,14681,2147757293,2147425051,2148009508,2147873892,2147641188,2147055872,2148259044,2147197458,2735,4,13,25922
1368259316,5807,998.5399780273438000,49.2564201354980500,673.2589111328125000,4.1904830932617190,53.8163986206054700,52,98,86,78,80,14682,2147752246,2147426706,2148010514,2147873901,2147643611,2147056932,2148265682,2147198107,270,4,13,4998
1368262916,5808,996.1199951171875000,48.4504394531250000,673.4437866210938000,4.1843681335449220,53.9261589050293000,52,98,87,79,81,14678,2147757046,2147426825,2148009563,2147874752,2147640246,2147063981,2148265170,2147196781,3349,4,13,17550
1368266516,5813,998.9600219726562000,48.9944190979003900,672.9628295898438000,4.2002749443054200,53.8455009460449200,53,97,86,79,81,14679,2147754596,2147424841,2148008950,2147874614,2147641846,2147060041,2148258733,2147196562,13,5,13,49933
1368270116,5805,995.5900268554688000,48.5469207763671900,672.9489135742188000,4.2007350921630860,53.9068794250488300,53,99,87,79,80,14672,2147754971,2147423158,2148008987,2147873892,2147639570,2147053568,2148260525,2147197357,355,4,13,2234
1368273716,5810,992.8400268554688000,48.6750907897949200,673.3843994140625000,4.1863331794738770,53.8986892700195300,52,97,84,78,79,14675,2147755200,2147427840,2148007021,2147876562,2147643602,2147058870,2148261019,2147196644,3303,4,13,5587
1368277316,5808,1000.2999877929688000,49.2857818603515600,673.5380859375000000,4.1812500953674320,53.8163490295410160,52,99,86,80,82,14674,2147758070,2147424301,2148008118,2147871350,2147642029,2147054491,2148258788,2147194916,3582,4,13,64210
1368280916,5805,998.9000244140625000,48.5044097900390600,673.4057006835938000,4.1856288909912110,53.9178886413574200,52,98,84,78,79,14675,2147754925,2147427840,2148008146,2147875364,2147643657,2147059163,2148259373,2147195044,3293,4,13,45551
1368284516,5806,995.3099975585938000,48.6029701232910160,673.3306884765625000,4.1881079673767090,53.9093399047851560,52,100,86,78,80,14676,2147755437,2147423113,2148011593,2147876150,2147644580,2147060553,2148254162,2147197321,2711,4,14,10212
1368288116,5808,998.8900146484375000,48.4509887695312500,673.0593261718750000,4.1970858573913570,53.9241485595703100,53,97,85,80,78,14676,2147755145,2147424045,2148008557,2147874422,2147642294,2147058870,2148258788,2147197970,3483,4,13,3092
1368291716,5808,998.9400024414062000,48.5452995300293000,672.9321899414062000,4.2012882232666020,53.9123992919921900,53,99,88,80,79,14678,2147758482,2147421019,2148010861,2147874797,2147641718,2147060836,2148260525,2147194898,506,4,13,20106
1368295316,5808,993.5000000000000000,48.9909400939941400,674.1464843750000000,4.1611251831054690,53.8594818115234400,52,98,88,78,79,14670,2147756361,2147423771,2148010642,2147872886,2147644306,2147064109,2148261750,2147197613,3595,4,13,28637
1368298916,5807,1003.8699951171875000,49.8613281250000000,674.2039794921875000,4.1592240333557130,53.7407913208007800,51,98,86,80,80,14675,2147755273,2147424137,2148007844,2147876836,2147643273,2147056832,2148258907,2147197366,3507,4,13,3692
1368302516,5807,1004.6599731445312000,49.0474395751953100,673.2108764648438000,4.1920719146728520,53.8389511108398440,52,97,81,80,79,14673,2147755062,2147425737,2148007616,2147874157,2147641536,2147061897,2148259739,2147198390,3361,4,13,48692
1368303055,5810,1005.7899780273438000,49.0297317504882800,672.9716796875000000,4.1999821662902830,53.8383903503418000,51,97,86,80,80,14668,2147757952,2147425965,2148005257,2147876982,2147643328,2147055478,2148261257,2147197686,3072,4,13,40107
